Regional Weather Roundup
Issued by NWS

Home | Current Version | Previous Version | Graphics & Text | Print | Product List | Glossary On
Versions: 1 2 3 4 5 6 7 8 9 10 11 12 13 14 15 16 17 18 19 20 21 22 23 24 25 26 27 28 29 30 31 32 33 34 35 36 37 38 39 40 41 42 43 44 45 46 47 48 49 50
745
ASUS43 KIND 160109
RWRIN

WEATHER ROUNDUP FOR INDIANA
NATIONAL WEATHER SERVICE INDIANAPOLIS IN
800 PM EST FRI DEC 15 2017

NOTE: "FAIR" INDICATES FEW OR NO CLOUDS BELOW 12,000 FEET WITH NO
SIGNIFICANT WEATHER AND/OR OBSTRUCTIONS TO VISIBILITY.

* - STATION DOES NOT REPORT WEATHER SUCH AS PRECIPITATION OR FOG.

+ - STATION NOT QUALITY CONTROLLED BY THE NATIONAL WEATHER SERVICE.
    USE DATA WITH CAUTION...ESPECIALLY DEWPOINT AND RELATIVE
    HUMIDITY OBSERVATIONS.

INZ001>003-010>013-019-020-160200-
NORTHWEST INDIANA

CITY           SKY/WX    TMP DP  RH WIND       PRES   REMARKS
GARY /AIRPORT/ CLOUDY    36  19  51 SW9       29.93S WCI  29
KNOX *+        CLOUDY    32  21  64 SW14      29.95R WCI  22
LA PORTE +     CLOUDY    31  21  66 SW10      29.93S WCI  22
MICHIGAN CITY+ CLOUDY    32  21  64 SW8       29.93S WCI  25
MONTICELLO +   CLOUDY    32  17  55 SW10      29.98S WCI  24
RENSSELAER +   CLOUDY    32  14  47 SW12      29.97S WCI  23
VALPARAISO     CLOUDY    34  21  59 SW13      29.94S WCI  25

$$

LMZ046-743>745-160200-
SOUTHERN LAKE MICHIGAN

STATION/POSITION TIME  TEMP    WIND        PRES    WAVE
                       AIR SEA DIR/SP/G            HT
                 (UTC) (F)     (DEG/KT/KT) (MB)    (FT)
BURNS HARBOR     0040   34     220/ 13/ 19 1013.9S
MICHIGAN CITY    0040   33     210/ 20/ 25   N/A

$$

INZ004-005-014>016-021>024-160200-
NORTH CENTRAL INDIANA

CITY           SKY/WX    TMP DP  RH WIND       PRES   REMARKS
GOSHEN         CLOUDY    29  20  69 SW12      29.93R WCI  19
LOGANSPORT +   CLOUDY    32  19  59 SW12      29.99S WCI  23
PERU/GRISSOM   CLOUDY    31  18  58 SW14      29.98R WCI  21
ROCHESTER +    CLOUDY    34  23  64 SW10G17   29.96S WCI  26
SOUTH BEND     CLOUDY    29  23  78 SW9       29.93R WCI  20
WARSAW +       CLOUDY    30  21  69 SW7       29.94S WCI  23

$$

INZ006>009-017-018-025>027-160200-
NORTHEAST INDIANA

CITY           SKY/WX    TMP DP  RH WIND       PRES   REMARKS
AUBURN +       CLOUDY    30  19  64 SW7       29.95R WCI  23
FORT WAYNE     CLOUDY    29  21  72 SW12      29.97R WCI  19
HUNTINGTON +   CLOUDY    30  18  59 SW8       29.97S WCI  23
KENDALLVILLE + CLOUDY    28  19  68 SW10      29.93R WCI  19

$$

INZ028-029-035-036-043>045-051>053-160200-
WEST CENTRAL INDIANA

CITY           SKY/WX    TMP DP  RH WIND       PRES   REMARKS
CRAWFORDSVL +  CLOUDY    29  20  68 MISG      30.03R
GREENCASTLE +  CLOUDY    32  19  59 SW3       30.05S
LAFAYETTE      CLOUDY    32  20  61 SW8       30.01R WCI  25
TERRE HAUTE    CLOUDY    33  22  63 S8        30.06S WCI  26

$$

INZ030>032-037>040-046>048-054>057-064-065-160200-
CENTRAL INDIANA

CITY           SKY/WX    TMP DP  RH WIND       PRES   REMARKS
COLUMBUS       CLOUDY    28  21  74 SW5       30.09S WCI  23
FRANKFORT +    CLOUDY    33  21  60 SW12      30.02S WCI  24
INDIANAPOLIS   CLOUDY    30  20  66 SW8       30.05R WCI  22
-EAGLE CREEK   CLOUDY    31  19  61 SW7       30.03S WCI  24
KOKOMO +       CLOUDY    31  20  63 SW15      30.00S WCI  20
MARION +       CLOUDY    30  19  62 SW16      30.00S HAZE    WCI  18
MT COMFORT *+  CLOUDY    30  23  74 SW10      30.04S WCI  21
SHELBYVILLE    CLOUDY    31  20  63 SW10      30.05S WCI  22
ZIONSVILLE +   CLOUDY    29  19  65 SW10      30.03S WCI  20

$$

INZ033-034-041-042-049-050-058-059-160200-
EAST CENTRAL INDIANA

CITY           SKY/WX    TMP DP  RH WIND       PRES   REMARKS
MUNCIE         CLOUDY    31  17  56 SW13      30.01R WCI  21
RICHMOND +     CLOUDY    28  21  74 SW13      30.04R WCI  18

$$

INZ060-061-067>069-081>083-085>088-160200-
SOUTHWEST INDIANA

CITY           SKY/WX    TMP DP  RH WIND       PRES   REMARKS
EVANSVILLE     CLOUDY    38  27  64 SW6       30.13S WCI  33
HUNTINGBURG +  CLOUDY    34  26  72 SW6       30.12R WCI  29
WASHINGTON +   CLEAR     28  23  79 SW5       30.11R WCI  23

$$

INZ062-063-066-070>080-084-089>092-160200-
SOUTH CENTRAL AND SOUTHEAST INDIANA

CITY           SKY/WX    TMP DP  RH WIND       PRES   REMARKS
BEDFORD +      CLEAR     28  23  80 S5        30.09  WCI  23
BLOOMINGTON    CLOUDY    31  23  72 SW7       30.07S WCI  24
MADISON *+     CLOUDY    32  23  69 SW3       30.11R
NORTH VERNON + MOCLDY    27  21  80 SW6       30.09S WCI  20
SEYMOUR +      CLEAR     27  19  74 S6        30.10R WCI  20

$$





USA.gov is the U.S. government's official web portal to all federal, state and local government web resources and services.